TimeCDT,TemperatureF,Dew PointF,Humidity,Sea Level PressureIn,VisibilityMPH,Wind Direction,Wind SpeedMPH,Gust SpeedMPH,PrecipitationIn,Events,Conditions,WindDirDegrees,DateUTC
12:12 AM,42.8,39.2,87,29.34,7.0,West,21.9,29.9,N/A,,Overcast,270,2012-10-18 05:12:00
12:32 AM,42.8,39.2,87,29.33,10.0,West,17.3,24.2,N/A,,Drizzle,270,2012-10-18 05:32:00
12:53 AM,42.8,39.2,87,29.33,10.0,West,21.9,29.9,N/A,,Overcast,270,2012-10-18 05:53:00
1:13 AM,42.8,39.2,87,29.32,10.0,West,17.3,27.6,N/A,,Overcast,270,2012-10-18 06:13:00
1:32 AM,42.8,39.2,87,29.32,10.0,West,21.9,27.6,N/A,,Overcast,270,2012-10-18 06:32:00
1:53 AM,42.8,39.2,87,29.31,10.0,West,18.4,23.0,N/A,,Overcast,270,2012-10-18 06:53:00
2:12 AM,42.8,39.2,87,29.30,10.0,West,19.6,25.3,N/A,,Overcast,260,2012-10-18 07:12:00
2:33 AM,42.8,39.2,87,29.30,10.0,West,18.4,24.2,N/A,,Overcast,260,2012-10-18 07:33:00
2:53 AM,42.8,39.2,87,29.30,10.0,West,23.0,27.6,N/A,,Overcast,270,2012-10-18 07:53:00
3:12 AM,42.8,39.2,87,29.29,10.0,West,21.9,32.2,N/A,,Overcast,270,2012-10-18 08:12:00
3:33 AM,42.8,39.2,87,29.28,5.0,West,25.3,-,N/A,,Drizzle,270,2012-10-18 08:33:00
3:53 AM,41.0,39.2,93,29.28,7.0,West,21.9,28.8,N/A,,Drizzle,280,2012-10-18 08:53:00
4:12 AM,41.0,39.2,93,29.28,7.0,West,27.6,32.2,N/A,,Drizzle,280,2012-10-18 09:12:00
4:33 AM,39.2,37.4,93,29.27,7.0,West,20.7,28.8,N/A,Rain,Light Rain,270,2012-10-18 09:33:00
4:53 AM,39.2,37.4,93,29.27,5.0,West,18.4,27.6,N/A,Rain,Rain,270,2012-10-18 09:53:00
5:12 AM,39.2,37.4,93,29.26,5.0,West,19.6,31.1,N/A,Rain,Rain,270,2012-10-18 10:12:00
5:33 AM,39.2,37.4,93,29.25,4.0,West,19.6,24.2,N/A,,Light Drizzle,270,2012-10-18 10:33:00
5:53 AM,39.2,37.4,93,29.24,7.0,West,17.3,28.8,N/A,,Light Drizzle,270,2012-10-18 10:53:00
6:12 AM,39.2,37.4,93,29.24,10.0,West,17.3,24.2,N/A,,Overcast,270,2012-10-18 11:12:00
6:33 AM,39.2,37.4,93,29.24,7.0,West,16.1,21.9,N/A,,Drizzle,270,2012-10-18 11:33:00
6:52 AM,39.2,37.4,93,29.24,7.0,West,17.3,-,N/A,,Drizzle,270,2012-10-18 11:52:00
7:13 AM,39.2,37.4,93,29.23,4.0,West,17.3,26.5,0.01,Rain,Rain,270,2012-10-18 12:13:00
7:52 AM,39.2,39.2,100,29.22,4.0,West,16.1,-,0.01,Rain,Light Rain,270,2012-10-18 12:52:00
8:13 AM,39.2,39.2,100,29.22,5.0,West,16.1,-,0.01,Rain,Rain,270,2012-10-18 13:13:00
8:32 AM,41.0,39.2,93,29.21,4.0,West,18.4,27.6,0.01,,Drizzle,280,2012-10-18 13:32:00
8:52 AM,41.0,39.2,93,29.21,4.0,West,20.7,26.5,0.01,Rain,Rain,280,2012-10-18 13:52:00
9:13 AM,42.8,39.2,87,29.21,2.5,West,17.3,21.9,N/A,Rain,Rain,280,2012-10-18 14:13:00
9:32 AM,42.8,39.2,87,29.21,4.0,WNW,20.7,25.3,N/A,Rain,Light Rain,290,2012-10-18 14:32:00
9:52 AM,42.8,39.2,87,29.21,7.0,WNW,19.6,27.6,0.01,,Drizzle,290,2012-10-18 14:52:00
10:13 AM,42.8,39.2,87,29.21,7.0,West,23.0,27.6,N/A,Rain,Rain,280,2012-10-18 15:13:00
10:32 AM,42.8,39.2,87,29.21,10.0,WNW,18.4,27.6,N/A,,Light Drizzle,290,2012-10-18 15:32:00
10:52 AM,42.8,41.0,93,29.20,3.0,West,16.1,24.2,N/A,,Overcast,280,2012-10-18 15:52:00
11:13 AM,42.8,42.8,100,29.20,2.0,WNW,20.7,-,N/A,,Light Drizzle,290,2012-10-18 16:13:00
11:32 AM,44.6,42.8,93,29.20,2.5,West,19.6,24.2,N/A,,Light Drizzle,280,2012-10-18 16:32:00
11:53 AM,44.6,42.8,93,29.19,1.8,WNW,21.9,25.3,N/A,,Light Drizzle,290,2012-10-18 16:53:00
12:13 PM,44.6,42.8,93,29.20,1.5,WNW,16.1,-,N/A,,Light Drizzle,300,2012-10-18 17:13:00
12:32 PM,44.6,42.8,93,29.21,2.0,NW,15.0,21.9,N/A,,Light Drizzle,310,2012-10-18 17:32:00
12:53 PM,44.6,42.8,93,29.22,3.0,NW,13.8,-,N/A,Rain,Light Rain,310,2012-10-18 17:53:00
1:13 PM,44.6,42.8,93,29.22,2.0,NW,18.4,-,N/A,Rain,Rain,320,2012-10-18 18:13:00
1:32 PM,46.4,44.6,93,29.23,10.0,NW,13.8,-,N/A,Rain,Light Rain,320,2012-10-18 18:32:00
1:53 PM,46.4,44.6,93,29.24,10.0,NW,18.4,-,N/A,,Overcast,320,2012-10-18 18:53:00
2:13 PM,46.4,44.6,93,29.24,10.0,NNW,17.3,23.0,N/A,Rain,Rain,330,2012-10-18 19:13:00
2:32 PM,46.4,44.6,93,29.25,10.0,NNW,17.3,20.7,N/A,,Overcast,330,2012-10-18 19:32:00
2:53 PM,46.4,44.6,93,29.26,7.0,NW,19.6,24.2,N/A,,Overcast,320,2012-10-18 19:53:00
3:12 PM,46.4,44.6,93,29.27,10.0,NW,19.6,25.3,N/A,Rain,Rain,320,2012-10-18 20:12:00
3:32 PM,46.4,44.6,93,29.28,10.0,NW,21.9,-,N/A,Rain,Light Rain,320,2012-10-18 20:32:00
3:53 PM,46.4,44.6,93,29.30,10.0,NNW,23.0,-,N/A,Rain,Light Rain,330,2012-10-18 20:53:00
4:12 PM,46.4,44.6,93,29.32,10.0,NNW,18.4,-,N/A,Rain,Light Rain,330,2012-10-18 21:12:00
4:32 PM,46.4,44.6,93,29.33,10.0,NNW,18.4,-,0.01,Rain,Light Rain,330,2012-10-18 21:32:00
4:53 PM,46.4,44.6,93,29.34,4.0,NNW,18.4,23.0,0.01,Rain,Light Rain,330,2012-10-18 21:53:00
5:12 PM,46.4,44.6,93,29.35,5.0,NW,16.1,-,N/A,Rain,Light Rain,320,2012-10-18 22:12:00
5:32 PM,46.4,44.6,93,29.35,7.0,NW,16.1,28.8,N/A,Rain,Light Rain,320,2012-10-18 22:32:00
5:53 PM,46.4,44.6,93,29.36,5.0,NW,16.1,24.2,0.01,Rain,Light Rain,320,2012-10-18 22:53:00
6:13 PM,46.4,44.6,93,29.36,7.0,NW,10.4,-,0.01,Rain,Light Rain,310,2012-10-18 23:13:00
6:32 PM,46.4,44.6,93,29.36,3.0,WNW,21.9,32.2,0.02,Rain,Light Rain,300,2012-10-18 23:32:00
6:52 PM,46.4,44.6,93,29.37,2.5,NW,21.9,31.1,0.02,,Drizzle,310,2012-10-18 23:52:00
7:12 PM,46.4,44.6,93,29.37,2.5,NW,21.9,29.9,N/A,,Drizzle,310,2012-10-19 00:12:00
7:33 PM,44.6,42.8,93,29.37,2.5,NW,19.6,28.8,N/A,,Drizzle,310,2012-10-19 00:33:00
7:52 PM,44.6,42.8,93,29.37,2.5,WNW,19.6,31.1,N/A,Rain,Rain,300,2012-10-19 00:52:00
8:12 PM,44.6,42.8,93,29.37,2.5,NW,21.9,31.1,N/A,,Drizzle,310,2012-10-19 01:12:00
8:33 PM,44.6,42.8,93,29.38,2.5,NW,24.2,33.4,N/A,,Drizzle,310,2012-10-19 01:33:00
8:52 PM,44.6,42.8,93,29.38,3.0,NW,23.0,31.1,N/A,Rain,Rain,310,2012-10-19 01:52:00
9:12 PM,44.6,42.8,93,29.38,3.0,NW,20.7,31.1,0.01,Rain,Rain,310,2012-10-19 02:12:00
9:33 PM,44.6,42.8,93,29.39,4.0,NW,23.0,31.1,0.02,Rain,Light Rain,320,2012-10-19 02:33:00
9:52 PM,44.6,42.8,93,29.39,4.0,NW,21.9,33.4,0.03,Rain,Rain,310,2012-10-19 02:52:00
10:12 PM,42.8,42.8,100,29.40,5.0,NW,24.2,34.5,N/A,Rain,Light Rain,320,2012-10-19 03:12:00
10:33 PM,42.8,42.8,100,29.40,4.0,NW,26.5,33.4,0.01,Rain,Light Rain,320,2012-10-19 03:33:00
10:52 PM,42.8,42.8,100,29.40,5.0,NW,23.0,32.2,0.01,Rain,Light Rain,320,2012-10-19 03:52:00
11:12 PM,42.8,41.0,93,29.40,4.0,NW,23.0,35.7,0.01,Rain,Light Rain,310,2012-10-19 04:12:00
11:33 PM,42.8,41.0,93,29.41,3.0,NW,24.2,35.7,0.01,Rain,Rain,320,2012-10-19 04:33:00
11:52 PM,42.8,41.0,93,29.41,3.0,NW,23.0,36.8,0.01,Rain,Light Rain,310,2012-10-19 04:52:00